THOR ABLESTAR DEB, 408

Orbit data source: Space-Track

THOR ABLESTAR DEB, 408 is space debris in LEO originally from a launch on Thu, 29 Jun 1961 UTC launched from the Air Force Eastern Test Range (AFETR). Debris objects in space refer to the collection of defunct objects orbiting the Earth. Examples of debris include non-operational satellites, rocket bodies, and fragments generated from explosions, collisions, or faulty payload assembly.

Loading next visibility...
Identifier
408, 1961-015EH
Orbit
LEO
Last TLE update
13 hours ago
Origin
Manufacturer
Unknown
Mission
Spacecraft
Bus & Motor
Unknown
Mass
Unknown
Launch date (UTC)
1961-06-29 (64 years ago)
Launch vehicle
Unknown
Launch site
Air Force Eastern Test Range (AFETR)
Object type
Payload
Rocket body
Debris
Shape & HBR
Unknown
Radar Cross Section
Medium (>0.1 m² and <1 m²)

Expand to show TLE details & history

TLE from 13 hours ago
0 THOR ABLESTAR DEB
1 00408U 61015EH  25199.42501025  .00000307  00000-0  38036-3 0  9993
2 00408  66.7844 185.8638 0066596 341.1244 173.5953 13.76839134259744
Epoch: 2025-07-18T10:12Z
TLE epoch observation values (Epoch: 2025-07-18T10:12:00.885Z)
Latitude
23.0648°
Longitude
-94.08519°
Altitude
1,025.745 km
Speed
7.317 km/s
True Right ascension
23h 41m 34s
True Declination
22° 56' 44"
Sunlit
Object was in daylight at epoch
Visualization orbit readout
Latitude
-17.596°
Longitude
87.30387°
Altitude
932.125 km
Speed
7.41 km/s
Apparent Right ascension
11h 03m 36s
Apparent Declination
-71° 15' 51"
Sunlit
Object is in daylight
Visualization observer readout
Local Sidereal Time
12:05:56
Azimuth
185.331° SSW
Elevation
-21.738°
Doppler factor
1
Orbital elements
Apogee altitude
1,022.484 km
Perigee altitude
924.566 km
Semi-major axis
7,351.662 km
Eccentricity
0.00666
Inclination
66.7844°
RAAN
185.8638°
Arg. of periapsis
341.1244°
True anomaly
173.67973°
Mean anomaly
173.5953°
Eccentric anomaly
173.63758°
Mean motion
3.44322 °/min
Orbital period
104.55 mins
BSTAR
0.00038036
Loading maneuver chart data...
Loading SW <> Apogee altitude chart data...
|